Theta_e
338 338 337 337 338 339 339 339 338 338 338 338 337 337 337 337 337 337 337 339 340 340 341 341 341 341 340 340 341 340 340 341 341 341 342 343 343 342 342 343 343 344
337 337 337 337 337 338 338 338 338 338 338 338 337 337 337 337 337 337 337 338 338 339 340 340 339 340 339 338 338 338 339 339 340 339 340 342 343 343 342 342 342 343
336 336 336 335 335 336 336 336 337 337 337 337 337 336 336 336 336 337 337 337 337 338 339 339 338 338 338 337 337 337 338 338 338 338 338 339 340 340 341 342 342 341
337 337 336 335 335 335 335 336 336 337 336 336 336 336 336 336 336 336 336 337 337 338 338 338 339 338 338 338 338 337 337 338 338 337 337 338 338 338 337 338 339 340
337 337 336 335 335 335 335 336 336 336 336 336 335 335 335 336 336 336 336 336 337 337 336 336 337 337 337 338 337 337 336 336 336 337 337 337 337 337 336 335 335 336
337 337 336 336 336 336 335 335 335 335 335 335 335 335 335 336 336 336 336 337 336 336 335 335 336 336 336 336 336 336 336 335 335 335 336 335 335 336 336 336 336 335
337 337 336 336 335 335 335 335 335 335 335 335 335 335 335 336 336 336 337 337 336 336 336 336 336 337 336 336 336 336 335 335 335 335 335 334 334 333 334 335 336 336
336 336 335 335 335 335 334 334 334 334 334 335 334 334 335 336 336 336 337 338 337 337 337 337 336 337 336 336 336 336 336 335 334 334 334 334 333 334 334 334 334 334
336 335 334 334 333 333 333 332 332 332 333 334 333 333 333 334 335 336 337 338 338 337 338 337 336 335 335 335 336 336 336 335 334 334 333 333 332 333 333 333 333 333
336 335 334 333 331 331 331 330 330 330 331 332 332 332 333 334 335 336 337 338 338 338 339 338 336 334 334 334 335 335 335 334 333 333 332 331 331 332 332 332 333 333
336 335 333 332 330 330 329 329 329 329 330 330 331 331 332 332 333 335 336 337 337 337 338 338 337 335 335 335 335 335 335 333 332 332 331 330 330 331 331 331 331 332
335 334 333 331 330 330 329 329 329 329 329 329 329 329 330 330 332 333 335 337 338 338 337 338 337 336 336 336 335 335 334 332 331 331 330 329 330 330 330 330 330 330
334 333 332 331 330 330 330 330 329 329 329 329 328 328 328 329 331 333 335 336 338 338 337 337 337 337 336 336 336 335 333 332 331 330 329 329 330 330 330 329 329 328
333 332 332 331 331 331 331 330 330 329 329 329 329 329 328 329 331 332 333 334 335 336 336 337 338 338 337 336 336 334 332 332 331 330 329 329 330 330 329 328 328 327
333 332 332 332 332 331 331 330 330 329 329 328 328 328 328 330 331 331 332 332 333 335 336 337 338 339 338 335 333 332 331 331 330 329 329 329 329 330 328 327 326 324
333 333 332 332 331 331 331 330 329 328 328 327 328 328 329 330 331 331 331 331 332 334 335 336 337 339 338 334 329 328 329 330 330 330 329 329 329 329 327 325 324 323
333 333 332 332 331 331 330 330 329 327 327 327 328 330 330 330 330 331 331 331 332 333 333 334 335 337 338 334 328 326 326 329 331 330 329 330 329 327 326 325 324 323
333 333 333 331 331 331 330 330 328 327 327 327 329 329 329 329 329 330 331 332 333 332 332 331 332 334 335 333 330 327 326 327 330 331 330 330 328 326 326 325 325 324
333 333 333 331 331 331 330 329 328 327 327 327 328 328 328 329 329 329 331 332 332 331 331 331 330 331 333 332 330 328 326 327 329 331 331 330 329 327 326 325 324 324
334 334 333 332 332 331 331 329 327 327 327 327 328 328 328 329 329 329 330 331 330 329 329 330 329 329 330 330 329 328 326 326 328 331 331 330 329 329 328 326 325 325
334 334 333 333 333 332 331 329 327 327 327 327 328 328 328 328 328 328 329 329 328 328 328 328 328 328 327 327 327 327 325 325 328 331 331 330 330 330 329 328 327 326
335 335 334 334 334 332 330 328 327 327 327 328 329 328 327 326 326 326 327 327 327 327 328 328 328 328 327 326 326 326 325 326 330 332 331 331 331 330 329 329 328 328
335 335 335 335 334 332 330 328 327 327 326 328 329 328 326 325 325 325 326 326 326 327 328 329 328 328 327 326 325 326 326 328 331 332 332 332 331 330 329 329 328 328
335 335 336 335 334 332 330 327 327 326 327 328 329 328 326 325 325 326 326 326 326 326 327 328 327 327 327 326 325 325 326 328 331 332 331 331 331 330 329 328 328 328
335 335 336 335 333 332 329 328 328 327 327 328 328 327 326 326 325 326 326 326 326 326 326 327 328 327 327 326 326 325 326 328 331 332 331 330 331 330 329 329 328 328
335 335 336 335 333 332 330 330 329 328 327 327 327 326 325 325 326 326 326 326 326 326 326 327 328 327 327 327 326 326 327 326 328 330 331 331 331 330 329 329 329 329
Wind_Speed
3 3 4 5 6 6 6 7 8 9 9 8 9 9 10 11 11 11 11 10 9 9 8 8 7 7 8 8 9 10 11 11 12 14 15 16 17 18 19 20 19 18
3 4 5 5 6 6 6 7 9 9 9 9 8 9 10 10 11 11 11 10 9 9 8 8 7 7 7 8 8 10 11 11 12 13 14 15 17 17 19 21 21 20
4 5 5 6 6 7 7 8 9 10 10 10 9 9 9 10 10 11 11 11 10 8 8 8 9 9 8 8 9 10 11 11 12 14 14 15 17 18 19 20 22 23
5 5 6 6 7 7 8 8 9 10 10 10 10 10 10 10 11 11 11 11 10 9 9 9 9 10 9 9 9 10 11 12 13 13 14 15 17 19 21 21 21 22
6 6 6 7 7 7 8 8 9 10 10 10 9 9 10 10 11 11 11 11 10 10 10 10 10 10 10 10 10 11 11 12 12 13 14 16 17 19 22 23 23 23
6 6 6 7 7 7 7 8 8 9 9 9 9 10 10 10 11 11 11 11 11 11 11 11 10 10 10 10 10 11 11 12 12 12 14 15 17 18 20 21 23 25
7 7 7 7 7 7 8 8 8 8 8 8 9 10 11 11 11 12 12 12 12 12 11 11 10 10 10 10 10 11 11 12 12 12 13 15 17 18 19 19 20 22
7 7 7 7 8 8 8 8 8 8 8 9 10 10 11 11 12 12 12 12 12 12 11 10 11 10 9 9 10 11 12 12 12 13 14 16 18 19 20 20 20 21
8 7 8 8 8 9 9 9 9 9 8 9 11 11 11 12 12 12 12 12 12 12 11 10 10 10 10 10 10 11 12 13 13 14 14 16 18 20 21 22 23 24
8 8 8 9 9 9 9 9 10 9 9 10 11 12 13 13 13 12 12 12 12 12 11 11 10 10 10 10 10 11 12 13 14 14 14 17 19 20 22 24 25 27
9 9 9 9 9 9 9 10 10 11 11 12 12 13 13 13 13 12 12 12 12 12 12 12 11 11 11 11 10 11 12 13 14 13 15 18 19 21 23 25 26 28
9 9 9 9 9 9 9 10 11 12 12 12 12 13 14 13 13 13 13 13 13 13 13 13 13 13 12 11 11 11 12 13 13 13 15 18 19 21 23 25 26 28
9 9 9 9 9 9 10 11 12 12 13 13 13 14 15 14 14 13 14 13 13 13 14 15 15 14 13 11 10 11 12 12 12 13 15 17 19 21 23 24 25 27
9 9 9 9 9 10 11 11 12 12 13 13 14 15 15 15 14 14 14 13 13 13 14 14 14 14 12 10 9 10 11 11 11 13 15 17 19 21 22 23 24 26
9 9 9 9 10 10 11 11 12 12 13 13 14 15 15 15 15 15 15 14 13 13 13 13 13 12 11 10 10 10 10 11 12 12 14 16 18 20 21 22 23 25
9 9 9 10 10 10 11 12 11 12 13 14 15 15 15 14 14 15 14 14 13 12 12 12 11 11 12 12 12 11 10 10 12 13 14 15 16 19 21 22 24 25
9 9 9 10 11 10 11 12 11 11 13 14 14 14 14 14 14 14 14 13 13 12 11 12 11 11 13 14 12 11 10 10 12 13 14 14 15 19 21 22 23 25
9 9 10 10 11 11 11 11 10 12 13 14 13 13 13 14 14 14 14 13 12 12 12 12 12 12 14 14 12 11 11 11 12 13 13 13 14 18 20 21 23 25
10 10 10 11 11 10 11 10 10 11 12 12 12 12 12 13 13 13 13 12 12 13 13 13 13 13 14 15 13 12 12 12 13 13 13 13 15 17 18 20 24 25
10 11 11 11 11 11 10 10 10 11 11 11 11 11 12 12 12 13 13 13 13 14 14 13 13 13 14 15 13 11 12 13 13 13 12 13 15 16 17 21 25 24
11 11 12 11 11 11 10 10 10 10 10 10 10 10 11 12 12 13 13 13 13 13 14 14 14 13 14 15 12 11 11 12 13 13 12 13 15 16 16 19 23 24
11 11 11 11 11 10 10 10 10 10 10 10 10 10 11 11 12 12 12 13 13 13 14 14 14 14 15 15 12 11 11 12 12 12 13 14 16 17 16 17 19 20
11 11 11 11 11 10 10 10 10 10 10 10 10 10 11 11 11 12 12 13 14 13 13 13 14 14 15 15 13 12 12 13 13 13 14 14 17 19 18 18 19 19
11 11 12 12 11 11 10 10 10 10 10 10 10 11 11 11 11 11 12 13 14 14 13 13 15 14 14 15 13 12 13 15 15 15 15 16 18 20 19 19 20 21
11 12 12 12 12 11 11 10 10 10 10 9 10 10 10 10 11 12 13 14 14 14 13 12 13 13 13 14 13 11 14 15 14 15 16 16 16 19 20 20 20 20
11 12 12 12 13 12 11 11 10 10 10 9 10 11 10 10 11 13 14 14 14 14 13 12 12 12 12 12 11 10 11 13 12 13 14 14 14 17 20 20 20 21
Wind_Direction
299 292 292 297 297 297 299 300 303 302 301 303 306 311 313 315 316 314 314 314 308 305 301 298 299 299 300 298 294 294 290 284 282 280 276 272 270 268 266 267 266 262
277 277 285 291 292 295 299 298 299 298 296 297 298 303 308 311 312 311 312 313 308 305 302 302 304 301 301 302 299 297 294 290 289 289 284 277 273 267 265 268 268 264
268 274 283 290 295 300 305 303 300 298 296 294 294 299 306 308 309 308 308 309 308 305 302 303 306 305 304 304 302 300 299 299 299 297 293 287 281 275 270 268 268 267
264 274 282 290 296 299 304 307 307 306 302 298 298 301 304 306 307 307 306 306 306 304 303 303 305 307 307 306 309 309 305 302 302 301 298 292 288 286 283 277 272 271
262 270 278 286 291 293 298 304 307 311 309 304 303 302 302 303 306 308 309 307 305 303 307 307 305 307 308 309 310 309 308 306 305 305 302 298 295 294 293 290 285 281
257 262 270 280 282 282 288 296 304 310 311 308 306 304 304 302 303 307 307 307 307 306 309 312 311 310 309 309 308 307 307 308 308 308 306 303 302 300 298 295 292 289
252 257 266 273 274 274 279 286 293 300 305 306 305 305 306 304 304 305 302 301 302 303 306 310 311 310 308 306 305 305 306 307 309 310 307 307 307 304 301 297 292 289
249 254 263 270 272 273 275 281 286 292 300 304 306 307 307 305 305 305 300 297 295 295 297 302 307 307 306 304 302 303 307 310 311 310 309 309 308 306 304 301 297 291
248 255 264 270 273 274 277 283 289 293 297 301 306 308 306 304 303 301 298 294 290 289 287 291 300 304 303 303 302 304 308 310 311 309 309 310 309 307 305 303 301 296
248 256 266 271 275 277 280 287 294 299 302 303 306 308 306 304 300 297 295 292 288 287 283 282 291 296 299 301 304 306 307 308 309 308 308 309 307 306 305 303 301 298
250 257 265 271 275 279 285 292 300 304 304 304 304 306 305 303 298 294 291 287 286 286 282 280 284 288 290 295 301 305 306 307 308 307 308 308 307 306 306 305 303 301
252 257 265 270 273 279 287 294 299 300 301 303 306 307 307 304 301 297 291 286 282 283 282 279 280 282 282 286 295 302 306 307 307 308 310 309 308 308 308 309 309 308
254 258 264 269 274 279 286 291 295 297 299 302 305 306 305 304 304 301 295 289 284 283 283 281 279 278 275 277 285 296 304 305 306 310 312 311 310 308 309 313 314 313
256 260 262 267 275 282 287 292 296 297 296 296 298 301 302 303 305 304 300 295 290 287 287 286 282 276 271 271 279 293 302 303 306 311 312 312 312 310 312 317 318 315
254 258 261 267 275 282 290 296 298 296 295 294 295 297 298 300 302 304 303 299 295 291 289 288 284 276 269 267 277 293 300 301 306 309 311 313 312 313 317 320 319 316
251 253 258 266 274 283 293 298 297 296 297 297 297 295 295 298 300 302 302 301 299 297 293 292 288 277 270 270 283 297 298 299 303 304 308 313 313 315 320 320 317 316
248 251 258 266 274 285 294 295 294 297 300 300 299 297 295 298 300 300 301 302 301 299 298 298 295 283 275 278 289 298 298 296 299 302 306 309 312 317 319 316 314 317
246 250 257 264 274 289 295 293 292 297 302 302 299 298 298 299 300 300 301 300 297 297 298 301 303 297 290 288 289 294 297 296 295 299 302 301 308 317 316 313 315 319
245 249 258 266 275 288 291 289 293 298 302 302 298 298 298 299 300 301 300 298 297 297 298 301 307 309 302 295 290 289 294 296 294 295 296 297 303 309 311 315 319 320
246 251 260 267 275 283 284 285 291 296 301 302 300 300 300 301 304 305 303 302 300 299 300 302 306 308 305 298 290 284 291 298 297 291 290 294 299 302 306 314 320 320
246 253 261 267 271 274 277 281 286 292 299 301 302 303 305 306 307 307 307 306 304 302 302 303 305 306 306 300 286 277 288 298 297 291 291 296 300 303 304 309 316 319
247 256 260 263 265 266 271 279 285 291 298 300 300 303 305 307 309 311 312 311 310 307 303 303 305 305 305 301 284 273 284 292 291 292 297 299 303 309 310 309 312 314
249 256 256 257 259 260 268 276 281 289 296 296 297 301 305 308 310 313 315 314 312 309 303 304 307 305 304 301 287 273 280 288 289 293 296 298 304 311 314 312 312 312
249 252 251 252 254 256 264 273 278 286 292 292 293 298 302 305 308 310 314 314 312 310 308 307 308 306 303 301 292 276 276 285 291 296 299 300 305 311 313 313 314 316
246 248 246 248 250 252 260 269 276 282 286 286 289 292 295 300 305 310 312 312 312 312 310 306 305 307 305 302 297 282 278 285 292 297 302 303 305 308 311 312 314 317
239 242 242 244 247 249 256 264 271 278 282 284 288 292 297 303 308 311 311 312 313 313 313 310 307 308 306 301 298 290 286 292 295 296 299 302 304 307 308 309 312 316